Simultaneous Nadir Overpasses (SNOs) Predictions

Prediction of SNOs between GOES-15 and METOP-C Satellite Orbit:

Table of predicted SNOs for the next 14.0 days since TLE Epoch: 7/6/2019
Index Date Time (GOES-15) GOES-15 Lat,Lon METOP-C Lat,Lon Distance(km) Time Diff (sec)
1 07/07/2019 17:44:46 -0.14,-127.65 -0.95,-123.97 419.94 80
2 07/09/2019 06:06:26 0.11,-127.55 -0.11,-128.55 114.25 80
3 07/10/2019 05:43:06 0.13,-127.51 0.99,-123.55 449.87 80
4 07/11/2019 18:04:39 -0.11,-127.49 0.01,-128.12 71.70 80
5 07/12/2019 17:41:20 -0.13,-127.45 -1.09,-123.13 492.49 80
6 07/14/2019 06:02:59 0.10,-127.34 0.03,-127.71 42.20 80
7 07/16/2019 18:01:12 -0.09,-127.26 -0.07,-127.27 2.20 80
8 07/19/2019 05:56:53 0.09,-127.11 0.17,-126.87 27.46 80
9 07/20/2019 18:18:24 -0.06,-127.07 0.94,-131.42 496.21 80




NCC Satellite Simultaneous Nadir Overpasses (SNOs) Prediction Service
